Weather Roundup
Issued by NWS Chicago, IL

Home | Current Version | Previous Version | Graphics & Text | Print | Product List | Glossary On
Versions: 1 2 3 4 5 6 7 8 9 10 11 12 13 14 15 16 17 18 19 20 21 22 23 24 25 26 27 28 29 30 31 32 33 34 35 36 37 38 39 40 41 42 43 44 45 46 47 48 49 50
581
NZUS59 KLOT 281403
HRRLOT

CHICAGO AREA WEATHER ROUNDUP
NATIONAL WEATHER SERVICE CHICAGO/ROMEOVILLE IL
900 AM CDT SUN AUG 28 2016

NOTE: "FAIR" INDICATES FEW OR NO CLOUDS BELOW 12,000 FEET WITH NO
SIGNIFICANT WEATHER AND/OR OBSTRUCTIONS TO VISIBILITY.

* THESE STATIONS ARE NOT UNDER NWS QUALITY CONTROL. THEY ALSO MAY NOT
  REPORT WEATHER SUCH AS PRECIPITATION OR FOG.

ILZ005-006-012>014-019>023-281500-
NORTHEAST ILLINOIS

CITY           SKY/WX    TMP DP  RH WIND       PRES   REMARKS
OHARE          MOSUNNY   76  70  82 E6        30.19S
MIDWAY         PTSUNNY   79  70  74 NE10      30.19S HX  82
AURORA         SUNNY     78  71  79 NE6       30.20R HX  80
LANSING*       SUNNY     76  74  92 CALM      30.19S
JOLIET*        MOSUNNY   78  74  86 CALM      30.19S HX  81
WAUKEGAN       PTSUNNY   74  67  78 E5        30.21R
DUPAGE AIRPORT PTSUNNY   76  69  79 E8        30.20R
WHEELING       CLOUDY    75  71  87 E5        30.21R
KANKAKEE*      SUNNY     77  72  86 CALM      30.19S
MORRIS*        MOSUNNY   77  73  88 CALM      30.17S
LEWIS AIRPORT* MOSUNNY   77  76  96 E3        30.19S
$$

WIZ051-052-058>065-066-070>072-281500-
SOUTHEAST WISCONSIN

CITY           SKY/WX    TMP DP  RH WIND       PRES   REMARKS
MILWAUKEE      PTSUNNY   73  67  81 NE10      30.21R
KENOSHA*       CLOUDY    72  68  87 E3        30.22R
RACINE*        CLOUDY    73  67  81 NE3       30.23R
BURLINGTON     MOSUNNY   68  67  99 CALM      30.22R
WAUKESHA       FOG       64  64 100 CALM      30.23R VSB 1
$$

INZ001>003-010>013-019-020-281500-
NORTHWEST INDIANA

CITY           SKY/WX    TMP DP  RH WIND       PRES   REMARKS
GARY*          MOSUNNY   79  73  83 CALM      30.19S HX  82
MICHIGAN CITY* NOT AVBL
RENSSELAER*    NOT AVBL
VALPARAISO     PTSUNNY   76  71  85 CALM      30.20S
$$

LMZ740>746-281500-
SOUTHERN LAKE MICHIGAN

STATION/POSITION TIME  SKY/WX   TEMP WIND        PRES    VSBY
                                AIR  DIR/SP/G
                 (UTC)          (F)  (DEG/KT/KT) (MB)    (MI)
HARRISON CRIB    1300            74   60/  4/  4   N/A
BURNHAM HARBOR   1400            76   30/  5/  6   N/A
CALUMET HARBOR   1300            74  350/  2/  3 1021.7R
BURNS HARBOR     1300            73   CALM  /  1 1022.4R
MICHIGAN CITY    1300            74  210/  2/  2   N/A
$$

ABBREVIATIONS USED IN REMARKS
   TC - TEMPERATURE IN CELSIUS
  WCI - WIND CHILL INDEX
   HX - HEAT INDEX
  VSB - VISIBILITY
$$




USA.gov is the U.S. government's official web portal to all federal, state and local government web resources and services.